{"data":{"norad_id":65968,"epoch":"2026-09-20T05:44:36.843648Z","epoch_age_seconds":162939,"freshness":"FRESH","line1":"1 65968U 25228X   26263.23931532  .00002011  00000+0  29272-3 0  9998","line2":"2 65968  51.8995 197.8200 0000917  73.7879 286.3184 14.79936390 52356","mean_motion":14.7993639,"eccentricity":9.17e-5,"inclination_deg":51.8995,"raan_deg":197.82,"arg_perigee_deg":73.7879,"mean_anomaly_deg":286.3184,"bstar":0.00029272,"rev_number":5235,"period_min":97.301479288579,"perigee_km":628.88232520668,"apogee_km":630.16753040425,"semimajor_km":7007.6619278055,"source":"CELESTRAK","updated_at":"2026-09-21T09:00:15.684192Z"}}